EW0765 Weather Reports


Display with metric or nautical units.
time (UTC)temp
F
wind
direction
speed
MPH
gust
MPH
rain 1hr
in
rain 24hr
in
rain mn
in
humidity
%
barometer
mb
20260902064537 74 259 0.0 0.0 0.00 0.00 0.00 90 1014.7
20260902063050 74 259 0.0 0.0 0.00 0.00 0.00 90 1014.9
20260902061534 74 259 0.0 0.0 0.00 0.00 0.00 89 1014.9
20260902060033 74 259 0.0 0.0 0.00 0.00 0.00 90 1015.1
20260902054538 74 259 0.0 0.0 0.00 0.00 0.00 89 1014.9
20260902053030 75 258 0.0 0.0 0.00 0.00 0.00 88 1014.8
20260902051529 75 258 0.0 0.0 0.00 0.00 0.00 88 1014.8
20260902050052 75 259 0.0 0.0 0.00 0.00 0.00 87 1014.8
20260902044525 76 259 0.0 0.0 0.00 0.00 0.00 87 1014.7
20260902043030 76 259 0.0 0.0 0.00 0.00 0.00 86 1014.6
20260902041520 76 258 0.0 0.0 0.00 0.00 0.00 86 1014.4
20260902040021 76 259 0.0 0.0 0.00 0.00 0.00 86 1014.2
20260902034522 77 259 0.0 0.0 0.00 0.00 0.00 86 1014.3
20260902033018 77 259 0.0 0.0 0.00 0.00 0.00 86 1014.5
20260902031519 77 258 0.0 0.0 0.00 0.00 0.00 86 1014.5
20260902030018 77 209 0.0 1.0 0.00 0.00 0.00 86 1014.5
20260902024518 77 242 0.0 0.0 0.00 0.00 0.00 84 1014.4
20260902023017 77 242 0.0 0.0 0.00 0.00 0.00 82 1014.4
20260902021516 77 241 0.0 0.0 0.00 0.00 0.00 80 1014.3
20260902020016 78 241 0.0 0.0 0.00 0.00 0.00 79 1014.0
20260902014516 78 241 0.0 0.0 0.00 0.00 0.00 79 1014.2
20260902013015 78 241 0.0 0.0 0.00 0.00 0.00 79 1014.1
20260902011516 79 241 0.0 0.0 0.00 0.00 0.00 78 1014.0
20260902010015 80 242 0.0 0.0 0.00 0.00 0.00 76 1013.7
20260902004514 80 241 0.0 0.0 0.00 0.00 0.00 76 1013.6
20260902003021 81 241 0.0 0.0 0.00 0.00 0.00 75 1013.6
20260902001513 81 240 0.0 0.0 0.00 0.00 0.00 74 1013.6
20260902000013 82 240 0.0 0.0 0.00 0.00 0.00 73 1013.5
20260901234510 83 225 0.0 6.0 0.00 0.00 0.00 72 1013.7
20260901233009 83 293 0.0 4.0 0.00 0.00 0.00 73 1013.9
20260901231510 83 246 0.0 6.0 0.00 0.00 0.00 73 1014.0
20260901230009 84 340 0.0 0.0 0.00 0.00 0.00 71 1014.2
20260901224509 84 288 0.0 3.0 0.00 0.00 0.00 70 1014.4
20260901223008 85 246 0.0 8.0 0.00 0.00 0.00 67 1014.3
20260901221508 86 247 1.0 8.0 0.00 0.00 0.00 65 1014.6
20260901220007 87 294 0.0 13.0 0.00 0.00 0.00 65 1014.4
20260901214507 87 275 1.0 7.0 0.00 0.00 0.00 65 1014.2
20260901213005 88 200 2.0 11.0 0.00 0.00 0.00 64 1014.1
20260901211506 88 238 1.0 7.0 0.00 0.00 0.00 66 1014.1
20260901210005 88 235 1.0 11.0 0.00 0.00 0.00 67 1014.1
20260901204505 88 279 1.0 7.0 0.00 0.00 0.00 67 1014.1
20260901203004 88 265 0.0 5.0 0.00 0.00 0.00 69 1014.1
20260901201503 88 254 1.0 6.0 0.00 0.00 0.00 68 1014.2
20260901200008 88 275 0.0 6.0 0.00 0.00 0.00 68 1014.3
20260901194505 88 158 0.0 7.0 0.00 0.00 0.00 66 1014.2
20260901193000 88 222 1.0 14.0 0.00 0.00 0.00 67 1014.1
20260901191614 88 259 0.0 6.0 0.00 0.00 0.00 67 1014.0
20260901190059 88 292 0.0 2.0 0.00 0.00 0.00 68 1013.9
20260901184612 87 253 0.0 5.0 0.00 0.00 0.00 67 1013.9
20260901183057 87 215 0.0 8.0 0.00 0.00 0.00 69 1013.9
20260901181600 86 252 0.0 7.0 0.00 0.00 0.00 69 1014.2
20260901180055 86 331 0.0 4.0 0.00 0.00 0.00 70 1014.3
20260901174558 85 235 0.0 4.0 0.00 0.00 0.00 73 1014.4
20260901173053 85 248 0.0 5.0 0.00 0.00 0.00 72 1014.5
20260901171553 86 253 0.0 3.0 0.00 0.00 0.00 71 1014.6
20260901170053 87 266 0.0 9.0 0.00 0.00 0.00 69 1014.8
20260901164555 88 167 1.0 7.0 0.00 0.00 0.00 69 1014.9
20260901163050 87 256 2.0 9.0 0.00 0.00 0.00 69 1015.0
20260901161604 87 261 1.0 8.0 0.00 0.00 0.00 70 1015.1
20260901160105 86 281 0.0 11.0 0.00 0.00 0.00 71 1015.0
20260901154543 85 271 0.0 7.0 0.00 0.00 0.00 73 1014.9
20260901153041 85 277 0.0 7.0 0.00 0.00 0.00 73 1014.9
20260901151539 84 276 0.0 7.0 0.00 0.00 0.00 74 1015.1
20260901150037 83 248 0.0 10.0 0.00 0.00 0.00 74 1015.2
20260901144537 82 185 0.0 7.0 0.00 0.00 0.00 76 1015.1
20260901143039 82 289 1.0 10.0 0.00 0.00 0.00 75 1015.2
20260901141540 83 221 0.0 5.0 0.00 0.00 0.00 77 1015.0
20260901140037 82 184 0.0 4.0 0.00 0.00 0.00 77 1014.7
20260901134530 81 239 1.0 6.0 0.00 0.00 0.00 78 1014.6
20260901133024 80 304 0.0 5.0 0.00 0.00 0.00 79 1014.6
20260901131525 79 224 1.0 8.0 0.00 0.00 0.00 80 1014.7
20260901130026 79 254 0.0 7.0 0.00 0.00 0.00 83 1014.9
20260901124525 78 230 0.0 2.0 0.00 0.00 0.00 84 1015.1
20260901123032 77 323 0.0 4.0 0.00 0.00 0.00 86 1015.0
20260901121512 76 270 0.0 2.0 0.00 0.00 0.00 87 1015.0
20260901120011 76 202 0.0 1.0 0.00 0.00 0.00 87 1015.0
20260901114510 75 192 0.0 1.0 0.00 0.00 0.00 87 1014.9
20260901113008 75 255 0.0 0.0 0.00 0.00 0.00 87 1014.9
20260901111509 75 217 0.0 1.0 0.00 0.00 0.00 87 1014.8
20260901110009 75 327 0.0 0.0 0.00 0.00 0.00 87 1014.7
20260901104510 75 300 0.0 2.0 0.00 0.00 0.00 87 1014.5
20260901103007 75 246 0.0 3.0 0.00 0.00 0.00 87 1014.4
20260901101507 75 291 0.0 1.0 0.00 0.00 0.00 87 1014.2
20260901100007 75 276 0.0 0.0 0.00 0.00 0.00 87 1014.3
20260901094511 75 238 0.0 1.0 0.00 0.00 0.00 86 1014.3
20260901093005 75 234 0.0 4.0 0.00 0.00 0.00 85 1014.2
20260901091505 76 310 0.0 0.0 0.00 0.00 0.00 85 1014.2
20260901090008 76 272 0.0 1.0 0.00 0.00 0.00 85 1014.3
20260901084506 76 271 0.0 1.0 0.00 0.00 0.00 84 1014.3
20260901083002 76 281 0.0 0.0 0.00 0.00 0.00 84 1014.1
20260901081502 76 308 0.0 1.0 0.00 0.00 0.00 84 1014.2
20260901080005 76 263 0.0 4.0 0.00 0.00 0.00 84 1014.3
20260901074601 76 251 0.0 0.0 0.00 0.00 0.00 84 1014.4
20260901073100 76 251 0.0 1.0 0.00 0.00 0.00 84 1014.4
20260901071603 76 260 0.0 1.0 0.00 0.00 0.00 83 1014.5